User: anonymous   Login
Location: Vancouver
(49.2500°N, 123.1330°W)
Time: 07:55:34
(UTC-07:00)
Language:

Cosmos 1408 Rocket - Orbit

View from above orbital plane
View from above orbital plane
View from above satellite
View from above satellite

Ground track
Ground track

The orbit data is extracted from the following two-line orbital elements,

1 13553U 82092B   16127.45493721  .00000142  00000-0  14082-4 0  9996
2 13553  82.5692 252.9930 0020225 311.5425 112.5328 14.84050443816711
Epoch (UTC): 06 May 2016 10:55:06
Eccentricity: 0.0020225
inclination: 82.5692°
perigee height: 602 km
apogee height: 631 km
right ascension of ascending node: 252.9930°
argument of perigee: 311.5425°
revolutions per day: 14.84050443
mean anomaly at epoch: 112.5328°
orbit number at epoch: 81671

The dashed part of the orbit path shows where the satellite is in the earth's shadow,  

DLR